Waarnemingen

Advertentie
Mijn weer
Aeroport de Lannion, Frankrijk (7118): temperatuur & dauwpunt: 20.05.2019 15:00:00 - 26.05.2019 15:00:00 (CEST)Aeroport de Lannion, Frankrijk (7118): windsnelheid & windstoten: 20.05.2019 15:00:00 - 26.05.2019 15:00:00 (CEST)Aeroport de Lannion, Frankrijk (7118): windrichting: 20.05.2019 15:00:00 - 26.05.2019 15:00:00 (CEST)Aeroport de Lannion, Frankrijk (7118): luchtdruk: 20.05.2019 15:00:00 - 26.05.2019 15:00:00 (CEST)Aeroport de Lannion, Frankrijk (7118): zicht: 20.05.2019 15:00:00 - 26.05.2019 15:00:00 (CEST)Aeroport de Lannion, Frankrijk (7118): neerslag: 20.05.2019 15:00:00 - 26.05.2019 15:00:00 (CEST)
Datum & Tijd tt [°C] td [°C] ff [km/u] ff [kn] fx [km/u] fx [kn] dd ppp [hPa] vv [km] rr [mm]
26.05.2019 15:00:00 16,2 12,9 27 14 39 21 W 1018,9 37 0,0
26.05.2019 14:00:00 16,2 13,3 23 13 38 20 W 1019,4 36 0,0
26.05.2019 13:00:00 15,2 12,5 27 15 41 22 W 1019,7 36 0,0
26.05.2019 12:00:00 13,7 12,4 28 15 38 20 W 1019,9 10 0,0
26.05.2019 11:00:00 14,3 13,3 21 11 34 18 W 1020,0 33 0,0
26.05.2019 10:00:00 13,4 12,6 16 9 29 16 WZW 1020,2 2,5 0,0
26.05.2019 09:00:00 12,9 12,0 18 10 29 16 W 1020,4 19 0,0
26.05.2019 08:00:00 12,6 12,0 13 7 26 14 W 1020,3 60 0,0
26.05.2019 07:00:00 12,4 11,9 15 8 29 16 W 1020,4 6 0,0
26.05.2019 06:00:00 12,5 12,0 18 10 29 15 W 1020,3 7 0,2
26.05.2019 05:00:00 12,5 11,9 10 5 18 10 WZW 1020,4 3,5 0,2
26.05.2019 04:00:00 12,6 11,8 11 6 22 12 W 1020,9 16 0,0
26.05.2019 03:00:00 13,0 12,1 13 7 24 13 W 1021,4 19 0,0
26.05.2019 02:00:00 13,2 12,4 14 7 24 13 W 1021,7 18 0,0
26.05.2019 01:00:00 13,3 12,5 18 10 28 15 W 1022,1 20 0,0
26.05.2019 00:00:00 13,5 12,7 16 9 27 15 W 1022,5 13 0,0
25.05.2019 23:00:00 13,5 12,9 17 9 28 15 WNW 1022,5 12 0,0
25.05.2019 22:00:00 13,6 12,8 15 8 29 16 W 1022,1 7 0,0
25.05.2019 21:00:00 14,1 12,7 13 7 27 15 W 1022,0 46 0,0
25.05.2019 20:00:00 15,0 12,3 20 11 29 16 W 1022,0 19 0,0
25.05.2019 19:00:00 16,3 11,7 17 9 29 16 W 1021,9 20 0,0
25.05.2019 18:00:00 17,0 10,4 19 10 29 16 WNW 1021,9 20 0,0
25.05.2019 17:00:00 17,3 10,2 19 10 29 15 W 1022,1 20 0,0
25.05.2019 16:00:00 17,6 11,8 15 8 30 16 WNW 1022,1 19 0,0
25.05.2019 15:00:00 17,1 12,0 16 9 27 15 W 1022,3 20 0,0
25.05.2019 14:00:00 16,5 12,8 17 9 25 13 W 1022,7 19 0,0
25.05.2019 13:00:00 14,7 12,2 16 9 24 13 WZW 1022,8 19 0,0
25.05.2019 12:00:00 14,1 12,0 17 9 24 13 W 1023,1 17 0,0
25.05.2019 11:00:00 13,8 12,2 16 9 29 16 W 1022,7 17 0,0
25.05.2019 10:00:00 13,3 11,9 16 9 26 14 W 1022,6 14 0,0
25.05.2019 09:00:00 13,8 12,2 16 9 23 13 W 1022,2 16 0,0
25.05.2019 08:00:00 13,2 12,1 13 7 24 13 WNW 1022,1 16 0,0
25.05.2019 07:00:00 12,6 11,7 14 8 23 13 WNW 1021,8 14 0,0
25.05.2019 06:00:00 12,3 11,4 9 5 16 9 WNW 1021,5 13 0,0
25.05.2019 05:00:00 12,2 11,1 10 5 21 11 WNW 1021,6 17 0,0
25.05.2019 04:00:00 12,4 11,1 13 7 27 15 WNW 1021,8 17 0,0
25.05.2019 03:00:00 12,5 11,2 13 7 24 13 WNW 1022,0 18 0,0
25.05.2019 02:00:00 12,5 11,2 15 8 26 14 WNW 1022,2 15 0,0
25.05.2019 01:00:00 12,7 11,6 17 9 25 13 WNW 1022,2 16 0,0
25.05.2019 00:00:00 12,8 11,7 18 10 31 17 WNW 1022,0 18 0,0
24.05.2019 23:00:00 12,8 11,5 16 9 27 14 W 1022,0 37 0,0
24.05.2019 22:00:00 12,8 11,4 17 9 29 16 W 1021,6 57 0,0
24.05.2019 21:00:00 13,4 10,7 18 10 35 19 W 1021,5 52 0,0
24.05.2019 20:00:00 14,5 10,9 24 13 36 19 W 1021,0 60 0,0
24.05.2019 19:00:00 14,6 11,2 20 11 31 17 WNW 1021,2 58 0,0
24.05.2019 18:00:00 15,5 11,5 22 12 35 19 WNW 1021,3 20 0,0
24.05.2019 17:00:00 15,3 12,1 20 11 32 17 W 1021,3 20 0,0
24.05.2019 16:00:00 16,1 11,5 20 11 30 16 NW 1021,4 20 0,0
24.05.2019 15:00:00 16,0 11,0 20 11 35 19 WNW 1021,3 46 0,0
24.05.2019 14:00:00 15,6 9,9 19 10 31 17 NW 1021,4 47 0,0
24.05.2019 13:00:00 15,3 10,3 17 9 31 17 WNW 1021,3 57 0,0
24.05.2019 12:00:00 15,5 7,3 16 9 28 15 NW 1021,3 60 0,0
24.05.2019 11:00:00 14,3 9,9 17 9 27 14 NW 1021,2 20 0,0
24.05.2019 10:00:00 13,8 10,4 15 8 25 13 NW 1021,0 38 0,0
24.05.2019 09:00:00 12,7 12,1 11 6 20 11 NW 1020,5 20 0,0
24.05.2019 08:00:00 10,9 10,6 7 4 11 6 WNW 1020,4 14 0,0
24.05.2019 07:00:00 8,5 8,1 7 4 9 5 WNW 1020,1 0,6 0,0
24.05.2019 06:00:00 8,7 8,2 6 3 10 5 NW 1019,6 10 0,0
24.05.2019 05:00:00 8,2 7,8 6 3 8 4 WNW 1019,5 0,3 0,2
24.05.2019 04:00:00 8,5 8,1 6 3 8 4 WNW 1019,2 1,8 0,0
24.05.2019 03:00:00 8,4 7,8 5 3 6 3 W 1019,2 0,4 0,0
24.05.2019 02:00:00 9,6 9,0 4 2 7 4 NW 1019,3 3,4 0,0
24.05.2019 01:00:00 9,9 9,0 5 3 12 6 W 1019,5 9 0,0
24.05.2019 00:00:00 11,0 10,2 7 4 10 6 WNW 1019,2 11 0,0
23.05.2019 23:00:00 10,9 9,5 4 2 8 4 WNW 1019,1 15 0,0
23.05.2019 22:00:00 11,6 9,2 5 3 19 11 WNW 1018,6 19 0,0
23.05.2019 21:00:00 14,1 8,5 13 7 21 12 WNW 1018,3 59 0,0
23.05.2019 20:00:00 14,1 8,3 9 5 23 12 NNW 1018,0 58 0,0
23.05.2019 19:00:00 15,6 6,3 15 8 23 12 NNW 1018,1 20 0,0
23.05.2019 18:00:00 15,7 6,9 15 8 23 12 NNW 1018,2 60 0,0
23.05.2019 17:00:00 16,8 5,4 13 7 24 13 NNW 1017,8 60 0,0
23.05.2019 16:00:00 17,9 5,1 14 7 24 13 NNW 1017,8 60 0,0
23.05.2019 15:00:00 17,7 7,7 16 8 23 13 NW 1017,9 20 0,0
23.05.2019 14:00:00 18,1 4,6 11 6 18 10 W 1017,9 55 0,0
23.05.2019 13:00:00 18,0 6,5 9 5 19 10 W 1018,1 41 0,0
23.05.2019 12:00:00 15,9 8,9 10 5 16 9 W 1018,7 39 0,0
23.05.2019 11:00:00 14,9 8,8 10 5 17 9 W 1018,5 20 0,0
23.05.2019 10:00:00 14,3 8,3 10 5 16 9 ZW 1018,4 48 0,0
23.05.2019 09:00:00 13,4 9,4 7 4 13 7 W 1018,3 38 0,0
23.05.2019 08:00:00 9,9 8,8 0 0 7 4 N 1018,1 20 0,0
23.05.2019 07:00:00 8,1 7,3 4 2 8 4 ZZO 1017,9 16 0,0
23.05.2019 06:00:00 7,9 7,1 6 3 8 4 ZZO 1018,0 12 0,2
23.05.2019 05:00:00 9,2 8,3 5 3 8 5 Z 1018,1 18 0,0
23.05.2019 04:00:00 9,9 8,8 5 3 7 4 ZZW 1018,4 18 0,0
23.05.2019 03:00:00 10,6 9,2 5 3 9 5 W 1018,8 19 0,0
23.05.2019 02:00:00 10,6 9,0 6 4 8 4 W 1019,1 42 0,0
23.05.2019 01:00:00 11,0 9,7 4 2 6 3 W 1019,1 45 0,0
23.05.2019 00:00:00 11,6 10,2 4 2 9 5 WNW 1019,5 32 0,0
22.05.2019 23:00:00 12,9 10,6 5 3 9 5 W 1019,6 42 0,0
22.05.2019 22:00:00 13,4 9,3 5 3 10 5 WNW 1019,3 60 0,0
22.05.2019 21:00:00 16,0 9,2 8 4 13 7 N 1018,8 60 0,0
22.05.2019 20:00:00 18,7 10,3 7 4 14 8 N 1018,8 53 0,0
22.05.2019 19:00:00 19,5 10,5 10 6 18 10 N 1018,6 55 0,0
22.05.2019 18:00:00 19,8 10,5 9 5 20 11 N 1018,9 60 0,0
22.05.2019 17:00:00 18,9 10,5 16 9 24 13 N 1019,4 60 0,0
22.05.2019 16:00:00 18,9 10,2 17 9 25 13 N 1019,6 19 0,0
22.05.2019 15:00:00 18,4 10,0 17 9 24 13 N 1020,0 59 0,0
22.05.2019 14:00:00 17,8 10,4 17 9 23 13 N 1020,2 57 0,0
22.05.2019 13:00:00 19,1 10,9 13 7 22 12 N 1020,4 20 0,0
22.05.2019 12:00:00 19,1 9,0 9 5 18 10 OZO 1020,6 20 0,0
22.05.2019 11:00:00 17,4 9,0 4 2 13 7 O 1020,9 20 0,0
22.05.2019 10:00:00 15,1 9,2 9 5 12 7 O 1021,0 18 0,0
22.05.2019 09:00:00 12,1 10,8 5 3 10 6 OZO 1021,1 15 0,0
22.05.2019 08:00:00 9,1 8,6 5 3 9 5 ZO 1021,0 9 0,0
22.05.2019 07:00:00 6,6 6,2 4 2 7 4 ZO 1020,9 6 0,0
22.05.2019 06:00:00 6,5 5,9 3 2 9 5 ZZO 1021,0 9 0,0
22.05.2019 05:00:00 7,0 6,4 4 2 6 3 ZO 1021,2 13 0,0
22.05.2019 04:00:00 7,5 6,9 2 1 5 3 OZO 1021,6 9 0,0
22.05.2019 03:00:00 8,2 7,6 0 0 5 3 N 1021,6 14 0,0
22.05.2019 02:00:00 8,6 8,0 3 2 5 3 Z 1021,8 12 0,0
22.05.2019 01:00:00 8,6 7,8 2 1 3 2 NW 1021,7 11 0,0
22.05.2019 00:00:00 8,9 7,8 0 0 4 2 N 1021,9 12 0,0
21.05.2019 23:00:00 10,6 8,7 0 0 9 5 N 1021,7 17 0,0
21.05.2019 22:00:00 12,2 9,4 4 2 16 8 NNO 1021,4 20 0,0
21.05.2019 21:00:00 13,6 9,0 9 5 18 10 N 1021,0 39 0,0
21.05.2019 20:00:00 14,5 9,5 10 6 21 12 N 1020,8 20 0,0
21.05.2019 19:00:00 14,9 9,3 13 7 23 13 NNO 1020,7 20 0,0
21.05.2019 18:00:00 15,4 8,8 15 8 23 12 N 1020,7 53 0,0
21.05.2019 17:00:00 16,2 8,4 14 8 29 15 N 1020,4 36 0,0
21.05.2019 16:00:00 16,8 9,5 16 9 25 13 N 1020,5 39 0,0
21.05.2019 15:00:00 16,9 9,6 14 8 23 12 NNO 1020,3 19 0,0
21.05.2019 14:00:00 17,7 9,6 10 5 22 12 NW 1020,1 47 0,0
21.05.2019 13:00:00 17,4 9,6 6 3 16 8 NW 1020,1 36 0,0
21.05.2019 12:00:00 15,5 11,1 8 5 19 10 NW 1020,1 19 0,0
21.05.2019 11:00:00 13,6 13,1 6 3 11 6 W 1019,9 16 0,0
21.05.2019 10:00:00 11,4 11,1 3 2 8 4 W 1019,8 2,6 0,0
21.05.2019 09:00:00 9,6 9,3 4 2 10 5 ZZW 1019,4 0,2 0,0
21.05.2019 08:00:00 8,8 8,5 5 3 10 6 ZZW 1019,0 0,1 0,2
21.05.2019 07:00:00 9,0 8,7 7 4 10 5 WZW 1018,7 0,1 0,0
21.05.2019 06:00:00 8,1 7,8 5 3 7 4 ZZW 1018,5 0,1 0,0
21.05.2019 05:00:00 8,6 8,2 5 3 8 4 ZW 1018,2 0,2 0,0
21.05.2019 04:00:00 8,1 7,7 4 2 8 4 Z 1018,1 6 0,0
21.05.2019 03:00:00 8,5 8,1 6 3 9 5 ZZW 1017,8 4,4 0,2
21.05.2019 02:00:00 8,6 8,0 6 4 9 5 ZZW 1017,8 7 0,0
21.05.2019 01:00:00 9,2 8,6 3 2 8 4 Z 1017,8 8 0,0
21.05.2019 00:00:00 9,7 8,9 6 3 6 4 WZW 1017,9 12 0,0
20.05.2019 23:00:00 10,5 9,6 5 3 12 7 WZW 1017,5 14 0,0
20.05.2019 22:00:00 11,6 10,2 8 4 22 12 NW 1017,0 35 0,0
20.05.2019 21:00:00 12,1 9,8 12 7 22 12 WNW 1016,7 20 0,0
20.05.2019 20:00:00 13,5 9,7 13 7 23 12 NW 1016,2 20 0,0
20.05.2019 19:00:00 13,9 9,1 15 8 31 17 NW 1015,9 39 0,0
20.05.2019 18:00:00 14,9 9,3 16 9 34 19 WNW 1015,7 41 0,0
20.05.2019 17:00:00 15,9 9,8 17 9 27 15 NW 1015,4 36 0,0
20.05.2019 16:00:00 15,7 8,9 17 9 26 14 WNW 1015,3 44 0,0
20.05.2019 15:00:00 15,8 7,8 16 9 26 14 WNW 1015,3 60 0,0

tt = temperatuur
td = dauwpunt
ff = windsnelheid
fx = windstoten
dd = windrichting
ppp = luchtdruk
vv = zicht
rr = neerslag

Weerstations in de omgeving